Preview of NWS' New Version of Forecast
This preview is not operational and should not be used for support decisions.

Regional Weather Roundup (RWR)

Issued by National Weather Service (NWS)

                            
000
ASUS43 KDMX 250906
RWRIA 

WEATHER ROUNDUP FOR IOWA
NATIONAL WEATHER SERVICE DES MOINES IA
400 AM CDT TUE JUN 25 2019

NOTE: "FAIR" INDICATES FEW OR NO CLOUDS BELOW 12,000 FEET WITH NO
SIGNIFICANT WEATHER AND/OR OBSTRUCTIONS TO VISIBILITY.

* - THESE STATIONS ARE NOT NWS STATIONS...THUS NOT UNDER NWS
QUALITY CONTROL.  THEY ALSO DO NOT REPORT WEATHER SUCH 
AS PRECIPITATION OR FOG.  

IAZ001>003-012>014-020>022-031>034-043>046-251000-
   NORTHWEST IOWA
  
CITY           SKY/WX    TMP DP  RH WIND       PRES   REMARKS
CARROLL *      PTCLDY    64  57  77 SW12      29.78S                  
CHEROKEE *     PTCLDY    62  61  95 SW3       29.80F                  
DENISON *      MOCLDY    64  59  82 VRB5      29.80S                  
LE MARS *      CLOUDY    63  63 100 SW5       29.81R                  
SHELDON *        N/A     64  64 100 SW6       29.77R                  
SIOUX CITY     LGT RAIN  62  59  90 SW9       29.81F                  
SPENCER        MOCLDY    66  57  72 SW12      29.78S                  
STORM LAKE *   CLOUDY    64  59  82 NW10      29.78S                  
$$
 
IAZ055>058-069>071-079>083-090>094-251000-
   SOUTHWEST IOWA
  
CITY           SKY/WX    TMP DP  RH WIND       PRES   REMARKS
ATLANTIC *     CLEAR     64  63  94 S7G13     29.80S                  
AUDUBON *      CLEAR     64  57  77 CALM      29.81S                  
CLARINDA *     CLEAR     64  61  88 S6        29.84F                  
COUNCIL BLFS * CLEAR     68  61  77 S12       29.77S                  
CRESTON *      CLEAR     64  59  82 S12       29.83F                  
HARLAN  *      CLEAR     63  61  94 S5        29.79S                  
LAMONI         PTCLDY    66  58  75 SW13      29.85S                  
RED OAK *      CLEAR     66  61  82 S7        29.80F                  
SHENANDOAH *   CLEAR     66  61  82 S6        29.80S                  
$$
 
IAZ047>049-059>061-072>074-084-251000-
   CENTRAL IOWA
  
CITY           SKY/WX    TMP DP  RH WIND       PRES   REMARKS
AMES           CLEAR     62  58  86 SW8       29.79R                  
ANKENY *       CLEAR     66  57  72 SW9       29.81S                  
BOONE *        CLEAR     64  63  94 SW7       29.79S                  
CHARITON *     CLEAR     66  61  82 SW9       29.84R                  
DES MOINES     CLEAR     65  56  72 S10       29.80R                  
GRINNELL*      CLEAR     63  58  83 SW10      29.83R                  
KNOXVILLE *    CLEAR     64  59  82 SW9       29.82S                  
MARSHALLTOWN   CLEAR     61  59  93 N6        29.80R                  
NEWTON *       CLEAR     63  61  94 SW8       29.82R                  
PELLA *        CLEAR     65  57  77 SW7       29.84R                  
$$
 
IAZ004>006-015-016-023>025-035-036-251000-
   NORTH CENTRAL IOWA
  
CITY           SKY/WX    TMP DP  RH WIND       PRES   REMARKS
ALGONA *       MOCLDY    63  59  88 SW3       29.77R                  
CLARION *      CLOUDY    63  59  88 SW10      29.79R                  
ESTHERVILLE    PTCLDY    62  56  80 SW10      29.75S                  
FORT DODGE *   MOCLDY    60  57  89 S5        29.79R                  
MASON CITY     MOCLDY    62  55  77 SW7       29.79R                  
FOREST CITY *  FAIR      59  59 100 S3        29.77S                  
IOWA FALLS *   FAIR      62  58  86 SW7       29.80S                  
$$

IAZ007>011-017>019-026>030-037>042-050>054-066-251000-
   NORTHEAST IOWA
  
CITY           SKY/WX    TMP DP  RH WIND       PRES   REMARKS
CEDAR RAPIDS   FAIR      60  58  92 SW7       29.80R                  
CHARLES CITY * CLOUDY    64  57  77 SW8       29.77S                  
CLINTON *      FAIR      62  60  93 SW9       29.81S                  
DECORAH *      FAIR      61  57  88 CALM      29.75S                  
DUBUQUE        FAIR      58  56  93 SW7       29.78S                  
OELWEIN *      MOCLDY    61  61 100 SW6       29.79S                  
WATERLOO       MOCLDY    63  58  83 SW5       29.78S                  
$$
 
IAZ064-065-067-068-078-251000-
   EAST CENTRAL IOWA
  
CITY           SKY/WX    TMP DP  RH WIND       PRES   REMARKS
DAVENPORT      FAIR      62  58  86 SW5       29.83R                  
IOWA CITY      FAIR      64  59  83 SW3       29.82S                  
MUSCATINE *    FAIR      66  59  77 SW12      29.82R                  
QUAD CITIES    FAIR      65  58  78 N6        29.81R                  
$$
 
IAZ062-063-075>077-085>089-095>099-251000-
   SOUTHEAST IOWA
  
CITY           SKY/WX    TMP DP  RH WIND       PRES   REMARKS
BURLINGTON     CLEAR     64  58  80 SW8       29.84S                  
FAIRFIELD *    CLEAR     63  57  82 SW7       29.84S                  
FORT MADISON * CLEAR     64  61  88 SW7       29.86S                  
KEOKUK *       CLEAR     64  59  82 SW8       29.86S                  
OSKALOOSA *    FAIR      64  57  79 SW9       29.83S                  
CENTERVILLE *  FAIR      64  59  82 SW8       29.87S                  
OTTUMWA        CLEAR     65  57  75 SW9       29.83S                  
WASHINGTON *   CLEAR     63  63 100 MISG      29.81S                  
$$

ABBREVIATIONS USED IN REMARKS
   TC - TEMPERATURES IN CELSIUS
  WCI - WIND CHILL INDEX
   HX - HEAT INDEX
  VSB - VISIBILITY  
$$